Regional Weather Roundup
Issued by NWS Grand Forks, ND

Home | Current Version | Previous Version | Text Only | Print | Product List | Glossary Off
Versions: 1 2 3 4 5 6 7 8 9 10 11 12 13 14 15 16 17 18 19 20 21 22 23 24 25 26 27 28 29 30 31 32 33 34 35 36 37 38 39 40 41 42 43 44 45 46 47 48 49 50

593
ASUS43 KFGF 071731
RWRFGF
PRAIRIE TO PINES  WEATHER ROUNDUP
NATIONAL WEATHER SERVICE EASTERN NORTH DAKOTA/GRAND FORKS ND
1100 AM CST SUN FEB 07 2016

 **SATELLITE DATA USED TO AUGMENT SKY COVER AT AUTOMATED STATIONS**
 *****  WEATHER ACROSS EASTERN NORTH DAKOTA  *****

CITY           SKY/WX    TMP DP  RH WIND       PRES   REMARKS
GRAND FORKS    CLOUDY    30  24  78 NW33G43   29.67R HAZE    WCI  14
GRAND FRKS AFB FLURRIES  28  22  79 N24G39    29.68R WCI  14
GRAND FRKS NWS   N/A     27 N/A N/A N26         N/A  WCI  11
DEVILS LAKE    CLOUDY    25  19  78 NW32G41   29.74R WCI   8
FARGO          LGT SNOW  36  32  85 W22       29.63R FOG
WAHPETON ARPT  CLOUDY    34  30  86 NW24G32   29.66R WCI  21
$$

 ***** WEATHER ACROSS CENTRAL AND WESTERN NORTH DAKOTA  *****

CITY           SKY/WX    TMP DP  RH WIND       PRES   REMARKS
BISMARCK       MIX PCPN  33  21  61 NW31G45   29.90R WCI  19
MINOT          LGT SNOW  28  15  58 NW36G46   29.93R WCI  11
JAMESTOWN      CLOUDY    31  24  75 NW35G46   29.73R WCI  15
MINOT AFB      CLOUDY    25  19  80 NW33G44   29.91R BLWGSNOWWCI   7
GARRISON         N/A     28  20  71 NW45G55   29.90R WCI   9
WILLISTON      CLOUDY    31  19  61 NW33G46   30.11R WCI  15
DICKINSON      CLOUDY    30  18  60 NW28G47   30.03R WCI  15
HETTINGER      PTSUNNY   33  17  51 NW44G56   30.04R WCI  17
$$

 *****  OTHER AIRPORT OBSERVATIONS IN OUR AREA  *****

CITY           SKY/WX    TMP DP  RH WIND       PRES   REMARKS
WALHALLA       LGT SNOW  19  18  93 NW32G44   29.76R WCI   0
GRAFTON AIRPOR CLOUDY    25  19  80 NW30G38   29.72R WCI   8
VALLEY CITY AR LGT SNOW  32  32 100 NW32G39   29.71R WCI  17
CANDO          CLOUDY    23  16  74 N35G44    29.80R WCI   4
CAVALIER APRT  FLURRIES  19  14  79 NW28G40   29.74R WCI   1
GWINNER          N/A     34  32  93 W23G33    29.71R WCI  22
SHEYENNE NWR     N/A     35  31  85 NW17      29.95S WCI  25
ROLLA          FLURRIES  19  10  68 NW46G55   29.78R WCI  -3
 ***** THE ABOVE OBSERVATIONS ARE NON NWS ARE NOT QUALITY
       CONTROLLED AND MAY MIS-REPORT RAIN FOR SNOW...
$$

  *****  WEATHER ACROSS NORTHERN MINNESOTA  *****

CITY           SKY/WX    TMP DP  RH WIND       PRES   REMARKS
FLAG ISLAND    LGT SNOW  27  21  80 NW22      29.47R WCI  12
WARROAD        SNOW      27  21  80 NW20      29.52R VSB 1/2 WCI  13
ROSEAU         LGT SNOW  27  21  80 NW22      29.53R VSB 3/4 WCI  12
HALLOCK        SNOW      19  18  93 NW35G45   29.67R VSB 1/4 WCI  -1
THF RVR FALLS  NOT AVBL
BAUDETTE       LGT SNOW  28  24  85 NW17G23   29.47R VSB 3/4 WCI  16
WASKISH        LGT SNOW  28  27  93 CALM      29.49R VSB 3/4
CROOKSTON      LGT SNOW  27  25  93 N33G40    29.66R VSB 3/4 WCI   9
STEPHEN NDAWN    N/A     21  18  86 NW35        N/A  WCI   2
GREENBUSH NDAW   N/A     21  19  93 NW26        N/A  WCI   4
$$
  *****  WEATHER ACROSS CENTRAL AND WEST MINNESOTA  *****

CITY           SKY/WX    TMP DP  RH WIND       PRES   REMARKS
FOSSTON        CLOUDY    27  23  86 NW21G32   29.59R FOG     WCI  13
BEMIDJI        LGT SNOW  29  27  91 NW23G33   29.51R VSB 3/4 WCI  15
PARK RAPIDS    LGT SNOW  34  30  85 W16       29.53R FOG     WCI  24
ELBOW LAKE     CLOUDY    34  30  85 NW18      29.65R FOG     WCI  23
WADENA         LGT RAIN  32  30  93 W15G21    29.57R WCI  22
DETROIT LAKES  FLURRIES  34  32  93 W20G26    29.59R WCI  22
MOORHEAD       RAIN      34  32  93 W24G30    29.63R WCI  21
FERGUS FALLS   LGT SNOW  34  28  80 NW20G28   29.66R WCI  22
MORRIS MN      CLOUDY    36  28  75 W23       29.66R
STAPLES        LGT SNOW  34  28  80 W14G21    29.57R WCI  24
$$
  *****  WEATHER ELSEWHERE ACROSS MINNESOTA  *****

CITY           SKY/WX    TMP DP  RH WIND       PRES   REMARKS
DULUTH         LGT SNOW  34  31  88 W14       29.45R FOG     WCI  25
INTRNTL FALLS  CLOUDY    32  29  88 W9        29.41R WCI  24
ELY            CLOUDY    34  32  93 W5        29.40S FOG
CLOQUET        FLURRIES  36  32  87 W9G17     29.47R
WHEATON        CLOUDY    37  30  75 W22G28    29.70R
BRAINERD       CLOUDY    35  28  75 W18G24    29.54R WCI  24
HIBBING        CLOUDY    33  31  92 W8        29.43R
ALEXANDRIA     CLOUDY    35  27  72 W21G30    29.62R WCI  24
SAINT CLOUD    CLOUDY    37  26  64 W22G30    29.60R
MINNEAPOLIS    MOSUNNY   39  25  57 W17G26    29.64R
$$

  *****  WEATHER ACROSS SOUTH DAKOTA  *****

CITY           SKY/WX    TMP DP  RH WIND       PRES   REMARKS
SIOUX FALLS    MOSUNNY   38  26  62 NW23G35   29.83S
BROOKINGS      MOSUNNY   34  26  72 W31G37    29.77R WCI  20
WATERTOWN      FLURRIES  34  27  75 W21G32    29.75R WCI  22
HURON          LGT SNOW  33  30  88 NW29G40   29.87R FOG     WCI  19
SISSETON         N/A     37  29  72 NW28G38   29.68S
ABERDEEN       FLURRIES  36  28  73 NW24G32   29.80R
MITCHELL       LGT SNOW  35  29  78 NW32G46   29.92R WCI  21
PIERRE         CLOUDY    35  24  64 NW41G52   29.95R WCI  20
MOBRIDGE       CLOUDY    35  24  64 NW35G47   29.86R WCI  21
RAPID CITY     SUNNY     38  10  31 NW48G63   30.14R
$$

  *****  SOME WEATHER IN NEARBY STATES *****

CITY           SKY/WX    TMP DP  RH WIND       PRES   REMARKS
GLASGOW MT     SUNNY     31  19  61 NW30G38   30.28R WCI  16
GREAT FALLS MT SUNNY     33  18  53 SW9       30.47R
CHEYENNE WY    CLOUDY    28  19  69 N15G35    30.28R WCI  16
SCOTTSBLUFF NE CLOUDY    34  20  56 NW17G25   30.30R WCI  23
OMAHA NE       CLOUDY    41  27  57 NW22G29   30.00R
DES MOINES IA  PTSUNNY   42  26  53 NW21G28   29.91R
DAVENPORT IA   SUNNY     41  31  67 W21       29.81S
CHICAGO IL     CLOUDY    41  29  62 W17G26    29.77F
EAU CLAIRE WI  CLOUDY    38  27  64 W12       29.60R
LA CROSSE WI   SUNNY     40  26  57 W15G23    29.69R
$$

  *****  SOME NATIONAL WEATHER *****

CITY           SKY/WX    TMP DP  RH WIND       PRES   REMARKS
LA GUARDIA NY  CLOUDY    45  22  40 CALM      30.14F
RALEIGH NC     CLOUDY    40  22  48 NE7       30.04S
ATLANTA GA     SUNNY     51  23  33 N14       30.15F
NEW ORLEANS LA MOSUNNY   56  26  31 N6        30.31S
OKLAHOMA CITY  MOSUNNY   48  26  42 NW10      30.17R
ALBUQUERQUE NM MOSUNNY   42  16  34 N13       30.39S
SALT LAKE CITY MOSUNNY   29  21  72 SE6       30.59R WCI  23
LOS ANGELES CA SUNNY     68  25  19 NE5       30.15R
BOISE ID       PTSUNNY   33  30  88 CALM      30.62R FOG
SEATTLE WA     CLOUDY    40  34  79 SE6       30.54S
$$

*** WEATHER ACROSS MANITOBA...SASKATCHEWAN AND ONTARIO ***
                ***ONTARIO***

CITY           SKY/WX    TMP DP  RH WIND       PRES   REMARKS
GERALDTON      LGT SNOW   1  -4  78 E16G24    29.71F VSB 3/4 WCI -18
THUNDER BAY    FLURRIES  25  23  93 E18       29.53R WCI  11
SIOUX LOOKOUT  LGT SNOW  14   9  79 E6        29.51R WCI   5
TORONTO        CLOUDY    39  28  65 SE13      29.98F
BIG TROUT LK   SUNNY     -8 -17  65 SE10G21   29.96S WCI -26
PICKLE LAKE    LGT SNOW   3  -4  72 E15G23    29.68S DRFTSNOWWCI -15
DRYDEN         LGT SNOW  18  14  86 NE15G24   29.44S WCI   3
KENORA         LGT SNOW  25  23  93 N9        29.44R VSB 1   WCI  15
$$
                *** MANITOBA***

CITY           SKY/WX    TMP DP  RH WIND       PRES   REMARKS
BRANDON        CLOUDY    18  10  73 NW29G38   29.85R WCI  -2
DAUPHIN        CLOUDY    14   7  73 N18G30    29.91R WCI  -3
ISLAND LAKE    FLURRIES   0  -6  78 NE5       29.81R WCI -10
PILOT MOUND      N/A     18  16  93 N20G26      N/A  WCI   1
THE PAS        LGT SNOW   5   0  78 NW17G25   29.99R DRFTSNOWWCI -14
THOMPSON       LGT SNOW  -8 -13  77 N7        29.94R WCI -22
WINNIPEG       LGT SNOW  16  12  86 NW37      29.70R VSB 1   WCI  -6
LYNN LAKE      FLURRIES  -2  -9  71 N12       29.96S WCI -20
CHURCHILL      CLOUDY   -11 -20  64 SE8       30.18R WCI -28
GILLAM         CLOUDY    -9 -18  64 E9        30.00S WCI -27
$$
                ***SASKATCHEWAN***

CITY           SKY/WX    TMP DP  RH WIND       PRES   REMARKS
ESTEVAN        CLOUDY    25  18  74 NW37G54   30.01R WCI   6
KINDERSLEY     MOSUNNY   25  18  74 NW16G23   30.27R WCI  12
LLOYDMINSTER   MOSUNNY   25  16  68 W18G26    30.24R WCI  11
PRINCE ALBERT  CLOUDY    23  18  80 NW15G28   30.11R WCI  10
REGINA         PTSUNNY   28  19  69 NW29G43   30.10R WCI  13
YORKTON        LGT SNOW  16  12  86 NW33G40   29.98R WCI  -5
N. BATTLEFORD  SUNNY     27  16  63 NW17G23   30.23R WCI  14
LA RONGE       FLURRIES  14   9  79 NW18G30   30.08R WCI  -3
SASKATOON      SUNNY     25  19  80 NW22G28   30.17R WCI  10
SWIFT CURRENT  SUNNY     28  19  69 NW28      30.24R WCI  13
$$
NOTE: THESE ARE AUTOMATED STATIONS WITH LIMITED QUALITY CONTROL
      "FAIR" INDICATES FEW OR NO CLOUDS BELOW 12,000 FEET WITH NO
      SIGNIFICANT WEATHER AND/OR OBSTRUCTIONS TO VISIBILITY.
      SKY/WX - SKY CONDITION AND SIGNIFICANT WEATHER.
      TMP - AIR TEMPERATURE.    DP   - DEWPOINT TEMPERATURE.
      RH  - RELATIVE HUMIDITY.  PRES - PRESSURE.
      HX  - HEAT INDEX.         WCI  - WIND CHILL INDEX.
$




USA.gov is the U.S. government's official web portal to all federal, state and local government web resources and services.